Date,TemperatureHighF,TemperatureAvgF,TemperatureLowF,DewpointHighF,DewpointAvgF,DewpointLowF,HumidityHigh,HumidityAvg,HumidityLow,PressureMaxIn,PressureMinIn,WindSpeedMaxMPH,WindSpeedAvgMPH,GustSpeedMaxMPH,PrecipitationSumIn
2013-12-1,57.0,42.7,32.0,30.0,25.3,23.0,74,53,27,30.39,30.27,6,2,8,0.00
2013-12-2,66.0,45.9,30.0,26.0,21.1,11.0,71,44,13,30.25,29.77,14,5,20,0.00
2013-12-3,51.0,32.0,17.0,31.0,22.4,11.0,88,70,38,29.82,29.71,24,9,31,0.00
2013-12-4,27.0,19.2,14.0,17.0,11.2,7.0,82,71,54,30.02,29.84,9,2,12,0.00
2013-12-5,29.0,20.3,14.0,13.0,9.4,6.0,77,64,39,30.05,29.98,6,3,9,0.00
2013-12-6,30.0,22.3,10.0,16.0,9.8,2.0,72,59,42,30.03,29.70,15,6,19,0.00
2013-12-7,31.0,24.4,16.0,23.0,12.9,7.0,80,62,43,30.08,29.63,16,8,23,0.00
2013-12-8,21.0,9.4,-1.0,9.0,1.3,-6.0,78,69,58,30.37,30.09,6,2,9,0.00
2013-12-9,22.0,6.0,-7.0,9.0,-1.5,-12.0,78,72,57,30.53,30.37,7,2,10,0.00
2013-12-10,23.0,10.2,-6.0,10.0,2.2,-11.0,80,70,55,30.47,30.31,6,2,9,0.00
2013-12-11,28.0,11.5,0.0,11.0,3.1,-5.0,80,70,46,30.44,30.35,5,2,8,0.00
2013-12-12,28.0,12.3,-1.0,13.0,4.0,-7.0,79,70,51,30.38,30.21,5,2,8,0.00
2013-12-13,31.0,17.8,2.0,17.0,9.2,-3.0,81,70,54,30.48,30.23,7,2,9,0.00
2013-12-14,35.0,18.5,3.0,19.0,10.4,-2.0,82,72,52,30.59,30.48,4,1,7,0.00
2013-12-15,38.0,22.4,7.0,21.0,13.7,3.0,83,70,49,30.54,30.41,4,2,5,0.00
2013-12-16,39.0,23.0,6.0,22.0,14.4,2.0,83,71,50,30.52,30.40,5,2,7,0.00
2013-12-17,32.0,28.7,20.0,21.0,19.4,14.0,76,68,63,30.39,30.26,2,1,3,0.00
2013-12-18,35.0,27.7,17.0,24.0,21.2,13.0,84,77,62,30.18,29.66,4,2,7,0.00
2013-12-19,35.0,29.1,15.0,27.0,19.0,9.0,83,66,48,30.02,29.66,19,8,27,0.00
2013-12-20,31.0,23.9,9.0,18.0,14.9,4.0,79,69,58,30.03,29.95,7,4,10,0.00
2013-12-21,46.0,30.3,21.0,29.0,20.5,16.0,82,67,50,30.12,29.93,8,3,13,0.00
2013-12-22,52.0,37.8,24.0,30.0,25.6,20.0,85,64,37,30.39,30.27,3,1,5,0.00
2013-12-23,54.0,34.6,20.0,31.0,25.6,17.0,88,72,40,30.45,30.36,5,2,8,0.00
2013-12-24,48.0,35.0,23.0,32.0,26.2,20.0,87,71,51,30.49,30.39,8,2,11,0.00
2013-12-25,45.0,31.3,17.0,30.0,23.8,15.0,89,75,54,30.53,30.40,8,2,11,0.00
2013-12-26,47.0,32.3,20.0,31.0,24.8,17.0,88,74,54,30.48,30.37,3,2,5,0.00
2013-12-27,38.0,30.1,20.0,29.0,24.2,17.0,90,80,68,30.38,30.20,8,3,10,0.00
2013-12-28,33.0,26.6,22.0,21.0,19.0,18.0,83,74,61,30.30,30.25,4,2,6,0.00
2013-12-29,39.0,31.9,23.0,24.0,22.2,19.0,85,68,54,30.37,30.28,5,3,7,0.00
2013-12-30,42.0,31.3,22.0,25.0,21.7,17.0,84,69,48,30.35,30.23,3,2,5,0.00
2013-12-31,52.0,39.0,19.0,24.0,22.4,16.0,87,54,31,30.31,30.20,4,2,5,0.00